EW2664 Weather Reports


time (UTC)temp
C
wind
direction
speed
KPH
gust
KPH
rain 1hr
cm
rain 24hr
cm
rain mn
cm
humidity
%
barometer
mb
20210927070109 23 75 0.0 0.0 0.00 0.00 0.00 90 1017.7
20210927065536 23 75 0.0 0.0 0.00 0.00 0.00 90 1017.7
20210927065040 23 75 0.0 0.0 0.00 0.00 0.00 89 1017.8
20210927064543 23 75 0.0 0.0 0.00 0.00 0.00 89 1017.8
20210927064044 23 75 0.0 0.0 0.00 0.00 0.00 88 1017.9
20210927063546 24 75 0.0 0.0 0.00 0.00 0.00 88 1018.0
20210927063048 24 75 0.0 0.0 0.00 0.00 0.00 88 1018.0
20210927062550 24 75 0.0 0.0 0.00 0.00 0.00 88 1018.1
20210927062052 24 75 0.0 0.0 0.00 0.00 0.00 88 1018.2
20210927061555 24 75 0.0 0.0 0.00 0.00 0.00 88 1018.2
20210927061038 24 75 0.0 0.0 0.00 0.00 0.00 87 1018.2
20210927060541 24 75 0.0 0.0 0.00 0.00 0.00 88 1018.2
20210927060053 24 75 0.0 0.0 0.00 0.00 0.00 88 1018.2
20210927055538 24 75 0.0 0.0 0.00 0.00 0.00 88 1018.2
20210927055039 24 75 0.0 0.0 0.00 0.00 0.00 88 1018.3
20210927054539 24 75 0.0 0.0 0.00 0.00 0.00 88 1018.3
20210927054038 24 75 0.0 0.0 0.00 0.00 0.00 88 1018.3
20210927053538 25 75 0.0 0.0 0.00 0.00 0.00 89 1018.4
20210927053037 25 75 0.0 0.0 0.00 0.00 0.00 88 1018.5
20210927052537 25 75 0.0 0.0 0.00 0.00 0.00 88 1018.5
20210927052036 25 75 0.0 0.0 0.00 0.00 0.00 88 1018.5
20210927051555 25 75 0.0 0.0 0.00 0.00 0.00 87 1018.6
20210927051056 25 75 0.0 0.0 0.00 0.00 0.00 87 1018.6
20210927050556 25 75 0.0 0.0 0.00 0.00 0.00 87 1018.6
20210927050107 25 75 0.0 0.0 0.00 0.00 0.00 87 1018.7
20210927045551 25 75 0.0 0.0 0.00 0.00 0.00 86 1018.8
20210927045051 25 75 0.0 0.0 0.00 0.00 0.00 86 1018.8
20210927044552 25 75 0.0 0.0 0.00 0.00 0.00 86 1018.8
20210927044052 25 75 0.0 0.0 0.00 0.00 0.00 86 1018.9
20210927043552 25 75 0.0 0.0 0.00 0.00 0.00 86 1019.0
20210927043051 25 75 0.0 0.0 0.00 0.00 0.00 86 1018.9
20210927042551 25 75 0.0 0.0 0.00 0.00 0.00 85 1018.8
20210927042051 25 75 0.0 0.0 0.00 0.00 0.00 85 1018.8
20210927041551 25 75 0.0 0.0 0.00 0.00 0.00 85 1018.8
20210927041050 25 75 0.0 0.0 0.00 0.00 0.00 84 1018.8
20210927040550 25 75 0.0 0.0 0.00 0.00 0.00 84 1018.8
20210927040102 25 75 0.0 0.0 0.00 0.00 0.00 84 1018.8
20210927035542 25 75 0.0 0.0 0.00 0.00 0.00 84 1018.7
20210927035046 25 75 0.0 0.0 0.00 0.00 0.00 84 1018.7
20210927034550 25 75 0.0 0.0 0.00 0.00 0.00 84 1018.7
20210927034054 25 75 0.0 0.0 0.00 0.00 0.00 84 1018.7
20210927033539 25 75 0.0 0.0 0.00 0.00 0.00 83 1018.8
20210927033043 26 75 0.0 0.0 0.00 0.00 0.00 83 1018.9
20210927032547 26 75 0.0 0.0 0.00 0.00 0.00 83 1018.9
20210927032050 26 75 0.0 0.0 0.00 0.00 0.00 83 1018.9
20210927031552 26 75 0.0 0.0 0.00 0.00 0.00 83 1018.9
20210927031054 26 75 0.0 0.0 0.00 0.00 0.00 83 1018.9
20210927030557 26 75 0.0 0.0 0.00 0.00 0.00 82 1018.9
20210927030111 26 75 0.0 1.6 0.00 0.03 0.00 82 1018.9
20210927025537 26 75 0.0 1.6 0.00 0.03 0.00 82 1018.9
20210927025041 26 75 0.0 1.6 0.00 0.03 0.00 82 1018.8
20210927024545 26 75 0.0 1.6 0.00 0.03 0.00 82 1018.9
20210927024050 26 75 0.0 1.6 0.00 0.03 0.00 81 1018.8
20210927023553 26 75 0.0 1.6 0.00 0.03 0.00 81 1018.9
20210927023037 26 75 0.0 1.6 0.00 0.03 0.00 81 1019.0
20210927022540 26 75 0.0 1.6 0.00 0.03 0.00 81 1019.0
20210927022042 26 75 0.0 1.6 0.00 0.03 0.00 81 1019.0
20210927021545 26 75 0.0 1.6 0.00 0.03 0.00 80 1019.0
20210927021049 26 75 0.0 0.0 0.00 0.03 0.00 80 1019.0
20210927020551 26 75 0.0 1.6 0.00 0.03 0.00 80 1018.9
20210927020107 26 76 0.0 3.2 0.00 0.03 0.00 80 1018.9
20210927015555 26 76 0.0 3.2 0.00 0.03 0.00 80 1018.9
20210927015037 26 76 0.0 1.6 0.00 0.03 0.00 80 1018.8
20210927014537 26 76 0.0 4.8 0.00 0.03 0.00 80 1018.7
20210927014039 26 76 0.0 4.8 0.00 0.03 0.00 80 1018.7
20210927013539 26 53 1.6 4.8 0.00 0.03 0.00 80 1018.6
20210927013040 26 56 0.0 6.4 0.00 0.03 0.00 80 1018.5
20210927012539 26 76 1.6 6.4 0.00 0.03 0.00 80 1018.4
20210927012055 26 43 0.0 3.2 0.00 0.03 0.00 80 1018.4
20210927011555 27 43 0.0 1.6 0.00 0.03 0.00 80 1018.3
20210927011055 27 43 0.0 4.8 0.00 0.03 0.00 79 1018.3
20210927010554 27 21 0.0 4.8 0.00 0.03 0.00 79 1018.3
20210927010106 27 74 0.0 4.8 0.00 0.23 0.00 79 1018.3
20210927005551 27 71 1.6 6.4 0.00 0.23 0.00 79 1018.3
20210927005052 27 69 1.6 4.8 0.00 0.23 0.00 79 1018.2
20210927004550 27 78 1.6 4.8 0.00 0.23 0.00 79 1018.2
20210927004050 27 86 0.0 6.4 0.00 0.23 0.00 79 1018.2
20210927003549 27 86 1.6 9.7 0.00 0.23 0.00 79 1018.1
20210927003049 27 55 3.2 9.7 0.00 0.23 0.00 79 1018.1
20210927002550 27 49 1.6 4.8 0.00 0.23 0.00 79 1018.1
20210927002049 27 76 1.6 6.4 0.00 0.23 0.00 79 1018.0
20210927001545 27 86 0.0 8.0 0.00 0.23 0.00 79 1018.1
20210927001045 27 60 1.6 9.7 0.00 0.23 0.00 79 1018.1
20210927000545 27 69 1.6 9.7 0.00 0.23 0.00 79 1018.0
20210927000055 27 46 1.6 14.5 0.00 0.33 0.00 79 1018.0
20210926235541 27 71 4.8 14.5 0.00 0.33 0.00 79 1018.0
20210926235040 27 122 3.2 11.3 0.00 0.33 0.00 79 1018.0
20210926234541 27 73 1.6 9.7 0.00 0.33 0.00 79 1018.1
20210926234039 27 69 1.6 8.0 0.00 0.33 0.00 80 1018.1
20210926233540 27 78 1.6 8.0 0.00 0.33 0.00 79 1018.1
20210926233040 27 78 1.6 12.9 0.00 0.33 0.00 79 1018.1
20210926232540 27 75 4.8 12.9 0.00 0.33 0.00 79 1018.1
20210926232040 27 74 3.2 11.3 0.00 0.33 0.00 79 1018.0
20210926231540 28 60 1.6 16.1 0.00 0.33 0.00 79 1017.9
20210926231040 28 43 3.2 9.7 0.00 0.33 0.00 79 1017.9
20210926230600 28 67 3.2 12.9 0.00 0.33 0.00 78 1017.9
20210926230111 28 70 3.2 12.9 0.00 0.33 0.00 79 1017.8
20210926225555 28 80 0.0 8.0 0.00 0.33 0.00 79 1017.7
20210926225056 28 73 1.6 8.0 0.00 0.33 0.00 79 1017.7
20210926224556 28 78 3.2 9.7 0.00 0.33 0.00 79 1017.6
20210926224055 28 127 3.2 9.7 0.00 0.33 0.00 79 1017.7
20210926223555 28 78 1.6 14.5 0.00 0.33 0.00 79 1017.7
20210926223054 28 61 3.2 14.5 0.00 0.33 0.00 78 1017.7
20210926222553 28 61 3.2 9.7 0.00 0.33 0.00 79 1017.7
20210926222053 28 84 0.0 8.0 0.00 0.33 0.00 81 1017.6
20210926221553 28 71 1.6 12.9 0.00 0.33 0.00 81 1017.5
20210926221053 28 60 0.0 12.9 0.00 0.33 0.00 81 1017.6
20210926220553 28 355 0.0 6.4 0.00 0.33 0.00 81 1017.5
20210926220103 28 36 1.6 12.9 0.00 0.33 0.00 80 1017.3
20210926154041 31 15 4.8 12.9 0.00 0.33 0.00 69 1018.7
20210926153542 31 84 3.2 12.9 0.00 0.33 0.00 72 1018.7
20210926153040 31 93 3.2 8.0 0.00 0.33 0.00 72 1018.8
20210926152543 31 315 3.2 14.5 0.00 0.33 0.00 72 1018.8
20210926152044 31 346 3.2 8.0 0.00 0.33 0.00 73 1018.7
20210926151546 31 10 1.6 8.0 0.00 0.33 0.00 74 1018.7
20210926151046 31 151 1.6 12.9 0.00 0.33 0.00 74 1018.7
20210926150548 31 340 4.8 12.9 0.00 0.33 0.00 74 1018.8
20210926150059 31 78 3.2 14.5 0.00 0.33 0.00 73 1018.8
20210926145546 31 57 1.6 14.5 0.00 0.33 0.00 73 1018.7
20210926145044 30 71 1.6 12.9 0.00 0.33 0.00 74 1018.6
20210926144543 30 79 3.2 12.9 0.00 0.33 0.00 75 1018.4
20210926144044 30 55 3.2 12.9 0.00 0.33 0.00 76 1018.4
20210926143545 30 76 1.6 12.9 0.00 0.33 0.00 77 1018.3
20210926143046 30 289 3.2 12.9 0.00 0.33 0.00 79 1018.2
20210926142547 30 60 3.2 8.0 0.00 0.33 0.00 80 1018.2
20210926142048 29 346 1.6 8.0 0.00 0.33 0.00 82 1018.2
20210926141547 29 86 1.6 6.4 0.00 0.33 0.00 81 1018.2
20210926141046 29 42 3.2 8.0 0.00 0.33 0.00 81 1018.1
20210926140546 28 98 1.6 12.9 0.00 0.33 0.00 82 1018.1
20210926140057 28 302 3.2 12.9 0.00 0.33 0.00 84 1018.1
20210926135542 28 85 3.2 11.3 0.00 0.33 0.00 85 1018.0
20210926135042 28 13 3.2 9.7 0.00 0.33 0.00 85 1017.9
20210926134543 28 95 3.2 8.0 0.00 0.33 0.00 87 1017.9
20210926134043 27 211 3.2 8.0 0.00 0.33 0.00 88 1017.9
20210926133541 27 98 0.0 4.8 0.00 0.33 0.00 90 1017.9
20210926133041 27 340 1.6 4.8 0.00 0.33 0.00 91 1017.8
20210926132541 27 316 1.6 6.4 0.00 0.33 0.00 91 1017.7
20210926132039 26 30 0.0 4.8 0.00 0.33 0.00 92 1017.7
20210926131539 26 90 0.0 3.2 0.00 0.33 0.00 93 1017.7
20210926131040 26 324 1.6 4.8 0.00 0.33 0.00 93 1017.7
20210926130540 26 5 1.6 4.8 0.00 0.33 0.00 94 1017.6
20210926130055 26 64 0.0 3.2 0.00 0.33 0.00 95 1017.5
20210926125539 26 355 0.0 3.2 0.00 0.33 0.00 96 1017.5
20210926125040 26 349 0.0 1.6 0.00 0.33 0.00 97 1017.4
20210926124543 25 349 0.0 3.2 0.00 0.33 0.00 97 1017.4
20210926124044 25 349 0.0 1.6 0.00 0.33 0.00 98 1017.4
20210926123546 25 349 0.0 1.6 0.00 0.33 0.00 98 1017.3
20210926123048 25 349 0.0 1.6 0.00 0.33 0.00 98 1017.3
20210926122548 25 355 0.0 3.2 0.00 0.33 0.00 98 1017.3
20210926122048 25 355 0.0 3.2 0.00 0.33 0.00 98 1017.3
20210926121550 25 355 0.0 3.2 0.00 0.33 0.00 99 1017.3
20210926121052 25 355 0.0 0.0 0.00 0.33 0.00 99 1017.3
20210926120554 25 355 0.0 1.6 0.00 0.33 0.00 99 1017.2
20210926120106 25 355 0.0 3.2 0.00 0.33 0.00 99 1017.2
20210926115549 25 355 0.0 3.2 0.00 0.33 0.00 99 1017.1
20210926115048 25 355 0.0 0.0 0.00 0.33 0.00 99 1017.1
20210926114548 25 355 0.0 1.6 0.00 0.33 0.00 99 1017.0
20210926114048 25 355 0.0 1.6 0.00 0.33 0.00 99 1016.9
20210926113548 25 355 0.0 0.0 0.00 0.33 0.00 99 1016.8
20210926113048 25 355 0.0 0.0 0.00 0.33 0.00 99 1016.8
20210926112548 25 355 0.0 0.0 0.00 0.33 0.00 99 1016.8
20210926112049 25 355 0.0 0.0 0.00 0.33 0.00 99 1016.8
20210926111547 25 355 0.0 0.0 0.00 0.33 0.00 99 1016.8
20210926111047 25 355 0.0 0.0 0.00 0.33 0.00 99 1016.8
20210926110548 25 355 0.0 0.0 0.00 0.33 0.00 99 1016.8
20210926110057 25 355 0.0 0.0 0.00 0.33 0.00 99 1016.8
20210926105551 25 355 0.0 0.0 0.00 0.33 0.00 99 1016.7
20210926105050 25 355 0.0 0.0 0.00 0.33 0.00 99 1016.6
20210926104550 25 355 0.0 0.0 0.00 0.33 0.00 99 1016.6
20210926104051 25 355 0.0 0.0 0.00 0.33 0.00 99 1016.5
20210926103551 25 355 0.0 0.0 0.00 0.33 0.00 99 1016.5
20210926103052 25 355 0.0 0.0 0.00 0.33 0.00 99 1016.5
20210926102533 25 355 0.0 0.0 0.00 0.33 0.00 99 1016.5
20210926102033 25 355 0.0 0.0 0.00 0.33 0.00 99 1016.5
20210926101552 25 355 0.0 0.0 0.00 0.33 0.00 99 1016.6
20210926101052 25 355 0.0 1.6 0.00 0.33 0.00 99 1016.6
20210926100551 25 355 0.0 1.6 0.00 0.33 0.00 99 1016.6
20210926100104 25 355 0.0 0.0 0.00 0.33 0.00 99 1016.5
20210926095543 25 355 0.0 0.0 0.00 0.33 0.00 99 1016.4
20210926095042 25 355 0.0 0.0 0.00 0.33 0.00 99 1016.4
20210926094541 25 355 0.0 0.0 0.00 0.33 0.00 99 1016.4
20210926094040 25 355 0.0 0.0 0.00 0.33 0.00 99 1016.3
20210926093540 25 355 0.0 0.0 0.00 0.33 0.00 99 1016.4
20210926093041 25 355 0.0 0.0 0.00 0.33 0.00 99 1016.3
20210926092540 25 355 0.0 0.0 0.00 0.33 0.00 99 1016.3
20210926092040 25 355 0.0 0.0 0.00 0.33 0.00 99 1016.3
20210926091541 25 355 0.0 0.0 0.00 0.33 0.00 99 1016.2
20210926091039 25 355 0.0 0.0 0.00 0.33 0.00 99 1016.2
20210926090539 25 355 0.0 0.0 0.00 0.33 0.00 99 1016.2
20210926090050 25 355 0.0 0.0 0.00 0.33 0.00 99 1016.2
20210926085534 25 355 0.0 0.0 0.00 0.33 0.00 99 1016.1
20210926085035 25 355 0.0 0.0 0.00 0.33 0.00 99 1016.1
20210926084536 25 355 0.0 0.0 0.00 0.33 0.00 99 1016.0
20210926084036 25 355 0.0 0.0 0.00 0.33 0.00 99 1016.0
20210926083533 25 355 0.0 0.0 0.00 0.33 0.00 99 1016.1
20210926083048 25 355 0.0 0.0 0.00 0.33 0.00 99 1016.1
20210926082548 25 355 0.0 0.0 0.00 0.33 0.00 99 1016.1
20210926082046 25 355 0.0 0.0 0.00 0.33 0.00 99 1016.0
20210926081543 25 355 0.0 0.0 0.00 0.33 0.00 99 1016.0
20210926081044 25 355 0.0 0.0 0.00 0.33 0.00 99 1016.1
20210926080544 25 355 0.0 0.0 0.00 0.33 0.00 98 1016.1
20210926080059 25 355 0.0 0.0 0.00 0.33 0.00 98 1016.1
20210926075545 25 355 0.0 0.0 0.00 0.33 0.00 98 1016.1
20210926075033 25 355 0.0 0.0 0.00 0.33 0.00 98 1016.2
20210926074537 25 355 0.0 0.0 0.00 0.33 0.00 98 1016.2
20210926074040 25 355 0.0 0.0 0.00 0.33 0.00 98 1016.1
20210926073538 25 355 0.0 0.0 0.00 0.33 0.00 98 1016.2
20210926073040 25 355 0.0 0.0 0.00 0.33 0.00 98 1016.3
20210926072543 25 355 0.0 0.0 0.00 0.33 0.00 98 1016.3
20210926072048 25 355 0.0 1.6 0.00 0.33 0.00 98 1016.2
20210926071552 25 355 0.0 3.2 0.00 0.33 0.00 98 1016.2
20210926071034 25 355 0.0 3.2 0.00 0.33 0.00 98 1016.3
20210926070536 25 319 0.0 0.0 0.00 0.33 0.00 98 1016.3